Weather History for Delaware, OH

Change the Weather History Date:

Thursday, June 27, 2013

  Actual Average Record
Temperature  
Mean Temperature 74 °F -  
Max Temperature 82 °F 83 °F 99 °F (1944)
Min Temperature 66 °F 58 °F 44 °F (1988)
Cooling Degree Days 9    
Growing Degree Days 24 (Base 50)    
Moisture  
Dew Point 67 °F    
Average Humidity 81    
Maximum Humidity 94    
Minimum Humidity 61    
Precipitation  
Precipitation 0.08 in - - ()
Sea Level Pressure  
Sea Level Pressure 29.75 in    
Wind  
Wind Speed 5 mph (West)    
Max Wind Speed 15 mph    
Max Gust Speed 23 mph    
Visibility 8 miles    
Events Rain    
Averages and records for this station are not official NWS values.
T = Trace of Precipitation, MM = Missing Value Source: NWS Daily Summary

Daily Weather History Graph

Daily Weather History Graph

Search for Another Location

Airport:

Trip Planner

Search our weather history database for the weather conditions in past years. The results will help you decide how hot, cold, wet, or windy it might be!

Date:

Astronomy

Jun. 27, 2013 Rise Set
Actual Time 6:04 AM EDT 9:06 PM EDT
Civil Twilight 5:31 AM EDT 9:39 PM EDT
Nautical Twilight 4:49 AM EDT 10:21 PM EDT
Astronomical Twilight 4:00 AM EDT 11:10 PM EDT
Moon No Moon Rise 11:05 AM EDT (6/27)
Length of Visible Light 16h 07m
Length of Day
15h 01m
Waning Gibbous, 76% of the Moon is Illuminated
Jun 27
Waning Gibbous
Jun 30
Last Quarter
Jul 8
New
Jul 15
First Quarter
Jul 22
Full

Hourly Weather History & Observations

Time (EDT) Temp. Heat Index Dew Point Humidity Pressure Visibility Wind Dir Wind Speed Gust Speed Precip Events Conditions
12:16 AM 68.0 °F - 66.2 °F 94% 29.82 in 10.0 mi South 5.8 mph - N/A   Light Drizzle
12:36 AM 68.0 °F - 64.4 °F 88% 29.82 in 10.0 mi South 5.8 mph - N/A   Light Drizzle
12:56 AM 68.0 °F - 64.4 °F 88% 29.82 in 10.0 mi South 5.8 mph - N/A Rain Light Rain
1:16 AM 68.0 °F - 64.4 °F 88% 29.80 in 10.0 mi SSE 3.5 mph - 0.01 in Rain Light Rain
1:36 AM 68.0 °F - 64.4 °F 88% 29.79 in 10.0 mi South 3.5 mph - 0.01 in Rain Light Rain
1:56 AM 68.0 °F - 64.4 °F 88% 29.79 in 10.0 mi Calm Calm - 0.01 in   Scattered Clouds
2:16 AM 68.0 °F - 64.4 °F 88% 29.78 in 10.0 mi SSW 3.5 mph - N/A   Mostly Cloudy
2:36 AM 68.0 °F - 64.4 °F 88% 29.78 in 7.0 mi Calm Calm - N/A   Overcast
2:55 AM 68.0 °F - 64.4 °F 88% 29.78 in 7.0 mi Calm Calm - N/A   Overcast
3:16 AM 68.0 °F - 66.2 °F 94% 29.78 in 7.0 mi Calm Calm - N/A   Overcast
3:36 AM 68.0 °F - 66.2 °F 94% 29.78 in 7.0 mi Calm Calm - N/A   Overcast
3:55 AM 68.0 °F - 66.2 °F 94% 29.77 in 7.0 mi Calm Calm - N/A   Overcast
4:16 AM 68.0 °F - 66.2 °F 94% 29.77 in 7.0 mi Calm Calm - N/A   Light Drizzle
4:36 AM 68.0 °F - 66.2 °F 94% 29.77 in 7.0 mi Calm Calm - N/A   Overcast
4:55 AM 68.0 °F - 66.2 °F 94% 29.77 in 5.0 mi South 3.5 mph - N/A   Overcast
5:16 AM 68.0 °F - 66.2 °F 94% 29.77 in 5.0 mi SSW 3.5 mph - N/A   Overcast
5:36 AM 68.0 °F - 66.2 °F 94% 29.77 in 4.0 mi SSW 4.6 mph - 0.03 in Rain Rain
5:55 AM 68.0 °F - 64.4 °F 88% 29.76 in 3.0 mi SSW 5.8 mph - 0.05 in Rain Rain
6:16 AM 68.0 °F - 64.4 °F 88% 29.76 in 7.0 mi SW 5.8 mph - 0.01 in   Light Drizzle
6:36 AM 68.0 °F - 64.4 °F 88% 29.77 in 7.0 mi SSW 9.2 mph - 0.01 in   Overcast
6:55 AM 66.2 °F - 64.4 °F 94% 29.77 in 10.0 mi SSW 5.8 mph - 0.01 in   Overcast
7:16 AM 66.2 °F - 64.4 °F 94% 29.78 in 10.0 mi SW 3.5 mph - N/A   Overcast
7:36 AM 66.2 °F - 64.4 °F 94% 29.77 in 7.0 mi SW 4.6 mph - N/A Rain Light Rain
7:55 AM 66.2 °F - 64.4 °F 94% 29.77 in 7.0 mi SW 5.8 mph - N/A   Overcast
8:16 AM 68.0 °F - 64.4 °F 88% 29.77 in 3.0 mi SW 6.9 mph - N/A   Overcast
8:36 AM 68.0 °F - 64.4 °F 88% 29.77 in 2.0 mi SW 5.8 mph - N/A   Overcast
8:55 AM 68.0 °F - 66.2 °F 94% 29.77 in 3.0 mi SW 6.9 mph - N/A   Overcast
9:16 AM 68.0 °F - 64.4 °F 88% 29.77 in 4.0 mi SW 5.8 mph - N/A   Overcast
9:36 AM 68.0 °F - 66.2 °F 94% 29.77 in 3.0 mi WSW 5.8 mph - N/A   Overcast
9:55 AM 68.0 °F - 66.2 °F 94% 29.76 in 2.5 mi WSW 4.6 mph - N/A   Overcast
10:16 AM 69.8 °F - 68.0 °F 94% 29.77 in 4.0 mi WSW 5.8 mph - N/A   Overcast
10:36 AM 69.8 °F - 68.0 °F 94% 29.76 in 2.5 mi West 5.8 mph - N/A Rain Rain
10:55 AM 69.8 °F - 68.0 °F 94% 29.76 in 5.0 mi WSW 4.6 mph - 0.01 in   Overcast
11:16 AM 71.6 °F - 68.0 °F 88% 29.76 in 7.0 mi WSW 4.6 mph - N/A   Overcast
11:36 AM 71.6 °F - 68.0 °F 88% 29.76 in 7.0 mi West 3.5 mph - N/A   Overcast
11:55 AM 73.4 °F - 69.8 °F 88% 29.76 in 10.0 mi WNW 3.5 mph - N/A   Overcast
12:16 PM 73.4 °F - 69.8 °F 88% 29.76 in 10.0 mi WNW 5.8 mph - N/A   Overcast
12:36 PM 77.0 °F - 69.8 °F 78% 29.76 in 7.0 mi WSW 5.8 mph - N/A   Mostly Cloudy
12:56 PM 77.0 °F - 69.8 °F 78% 29.76 in 10.0 mi West 5.8 mph - N/A   Mostly Cloudy
1:16 PM 77.0 °F - 69.8 °F 78% 29.75 in 10.0 mi WNW 6.9 mph - N/A   Mostly Cloudy
1:36 PM 78.8 °F - 69.8 °F 74% 29.75 in 10.0 mi WNW 8.1 mph - N/A   Mostly Cloudy
1:56 PM 78.8 °F - 69.8 °F 74% 29.75 in 10.0 mi West 9.2 mph - N/A   Mostly Cloudy
2:16 PM 78.8 °F - 69.8 °F 74% 29.75 in 10.0 mi NW 6.9 mph - N/A   Scattered Clouds
2:36 PM 78.8 °F - 68.0 °F 69% 29.75 in 10.0 mi WNW 10.4 mph - N/A   Mostly Cloudy
2:56 PM 80.6 °F 83.9 °F 69.8 °F 70% 29.75 in 10.0 mi NW 5.8 mph - N/A   Overcast
3:16 PM 80.6 °F 83.9 °F 69.8 °F 70% 29.75 in 10.0 mi West 6.9 mph - N/A   Scattered Clouds
3:36 PM 80.6 °F 83.9 °F 69.8 °F 70% 29.74 in 10.0 mi WNW 10.4 mph 16.1 mph N/A   Scattered Clouds
3:56 PM 80.6 °F 83.9 °F 69.8 °F 70% 29.73 in 10.0 mi WNW 12.7 mph 16.1 mph N/A   Clear
4:16 PM 82.4 °F 86.3 °F 69.8 °F 66% 29.73 in 10.0 mi NW 11.5 mph - N/A   Clear
4:36 PM 82.4 °F 86.3 °F 69.8 °F 66% 29.72 in 10.0 mi WNW 10.4 mph - N/A   Clear
4:56 PM 82.4 °F 86.3 °F 69.8 °F 66% 29.72 in 10.0 mi West 10.4 mph 16.1 mph N/A   Scattered Clouds
5:16 PM 82.4 °F 86.3 °F 69.8 °F 66% 29.71 in 10.0 mi WNW 10.4 mph 16.1 mph N/A   Mostly Cloudy
5:36 PM 82.4 °F 85.4 °F 68.0 °F 62% 29.71 in 10.0 mi WNW 12.7 mph - N/A   Scattered Clouds
5:56 PM 80.6 °F 83.2 °F 68.0 °F 65% 29.71 in 10.0 mi West 10.4 mph - N/A   Scattered Clouds
6:16 PM 80.6 °F 83.2 °F 68.0 °F 65% 29.71 in 10.0 mi WNW 11.5 mph - N/A   Scattered Clouds
6:35 PM 80.6 °F 83.2 °F 68.0 °F 65% 29.70 in 10.0 mi WNW 13.8 mph 19.6 mph N/A   Scattered Clouds
6:56 PM 80.6 °F 83.2 °F 68.0 °F 65% 29.70 in 10.0 mi WNW 13.8 mph 19.6 mph N/A   Clear
7:16 PM 80.6 °F 82.7 °F 66.2 °F 61% 29.71 in 10.0 mi WNW 15.0 mph 23.0 mph N/A   Clear
7:36 PM 80.6 °F 83.2 °F 68.0 °F 65% 29.71 in 10.0 mi WNW 11.5 mph 18.4 mph N/A   Clear
7:56 PM 78.8 °F - 68.0 °F 69% 29.71 in 10.0 mi WNW 8.1 mph - N/A   Clear
8:16 PM 78.8 °F - 66.2 °F 65% 29.72 in 10.0 mi WNW 9.2 mph 16.1 mph N/A   Clear
8:35 PM 77.0 °F - 62.6 °F 61% 29.71 in 10.0 mi WNW 9.2 mph - N/A   Scattered Clouds
8:56 PM 75.2 °F - 62.6 °F 65% 29.71 in 10.0 mi West 5.8 mph - N/A   Clear
9:16 PM 73.4 °F - 64.4 °F 73% 29.72 in 10.0 mi West 3.5 mph - N/A   Scattered Clouds
9:35 PM 71.6 °F - 64.4 °F 78% 29.72 in 10.0 mi West 4.6 mph - N/A   Scattered Clouds
9:56 PM 71.6 °F - 64.4 °F 78% 29.71 in 10.0 mi West 5.8 mph - N/A   Scattered Clouds
10:16 PM 73.4 °F - 64.4 °F 73% 29.71 in 10.0 mi Calm Calm - N/A   Clear
10:35 PM 71.6 °F - 66.2 °F 83% 29.71 in 10.0 mi Calm Calm - N/A   Clear
10:56 PM 71.6 °F - 66.2 °F 83% 29.71 in 10.0 mi North 8.1 mph - N/A   Clear
11:16 PM 71.6 °F - 64.4 °F 78% 29.70 in 10.0 mi NE 5.8 mph - N/A   Clear
11:36 PM 71.6 °F - 62.6 °F 73% 29.70 in 10.0 mi NE 4.6 mph - N/A   Clear
11:56 PM 69.8 °F - 64.4 °F 83% 29.70 in 10.0 mi Calm Calm - N/A   Clear